Cloud_Cover
5 0 0 0 0 13 10 0 18 80 100 100 97 99 9 11 1 0 8 0 0 0 0 2 0 0 0 0 0 0 0 0 0 0 0 0 0 0 0 0 0 0 0
1 5 5 0 2 10 0 0 84 100 64 6 1 0 0 0 0 0 0 0 0 0 0 0 0 0 0 5 9 0 0 0 0 0 18 49 0 0 0 0 0 9 0
5 3 5 5 9 14 0 0 60 1 0 5 4 0 0 0 0 0 0 0 0 0 0 0 0 1 25 6 0 0 0 0 0 3 12 53 4 0 0 0 0 0 8
77 10 3 9 84 62 2 0 3 0 0 0 0 0 0 0 0 0 0 0 0 22 19 20 40 16 16 0 0 0 0 0 0 27 98 78 49 1 0 9 9 0 0
22 87 17 26 96 56 100 12 25 4 0 0 0 0 0 0 0 0 1 0 10 2 1 1 0 0 0 0 0 0 0 0 12 2 7 26 71 50 26 0 0 0 0
98 81 50 7 47 39 5 99 26 66 5 5 0 0 0 0 0 0 0 7 1 0 0 1 0 0 0 0 0 0 0 0 100 98 87 83 96 96 92 70 44 18 24
61 91 40 82 44 27 27 70 58 56 5 5 5 5 5 27 5 5 5 5 5 5 5 5 5 5 5 5 7 0 0 2 2 10 27 54 24 6 88 97 86 29 54
32 88 54 7 100 85 19 100 53 82 78 11 4 5 5 5 5 53 12 6 5 5 30 5 5 4 4 4 5 15 5 4 3 22 35 10 4 0 0 2 20 50 26
92 52 24 23 100 74 86 75 19 33 91 97 65 5 70 16 5 5 27 80 100 67 18 5 19 13 5 5 2 5 0 0 5 6 61 5 1 1 5 4 4 5 40
99 88 39 55 100 100 89 47 100 35 100 100 100 100 81 97 99 23 5 6 53 58 39 77 100 100 100 50 52 9 8 83 26 5 5 5 5 20 63 81 95 100 77
34 95 5 98 80 100 100 100 100 100 100 100 100 100 100 100 100 100 100 100 100 100 100 100 100 100 100 100 100 100 100 98 48 32 5 5 36 35 5 34 5 5 12
58 86 15 32 63 98 100 100 89 71 53 90 100 100 100 100 100 100 100 100 100 100 100 100 100 100 100 100 100 79 100 76 18 34 35 35 28 11 9 5 5 5 1
94 84 80 9 98 82 76 100 100 100 99 80 56 61 46 49 90 100 99 97 76 73 48 69 54 59 52 81 61 96 99 42 43 34 87 56 7 5 0 2 0 0 0
58 85 100 92 21 92 99 74 100 100 100 100 95 82 100 98 63 41 32 64 82 58 33 95 88 98 92 45 5 5 6 5 5 5 4 0 0 0 0 0 0 1 88
48 100 86 79 66 86 87 92 100 100 100 100 100 98 99 88 78 52 66 100 86 74 95 91 88 100 52 8 5 5 5 0 0 0 0 0 0 0 0 0 0 1 0
74 96 81 76 81 95 100 100 100 100 100 100 85 50 40 29 60 89 100 100 100 77 98 100 100 92 36 5 5 3 4 0 0 0 0 0 0 0 0 0 0 0 0
83 13 98 96 59 88 100 100 100 100 100 100 100 70 52 70 98 100 100 100 100 100 100 56 5 5 5 5 12 5 0 0 0 0 0 0 0 0 0 0 0 0 0
51 61 62 100 98 100 100 100 100 100 100 100 100 100 71 99 100 100 100 100 100 60 10 5 5 5 6 8 3 5 0 3 0 3 0 0 0 0 0 0 0 0 0
85 65 51 22 100 100 100 100 97 77 98 99 100 100 100 100 90 99 72 63 83 7 12 5 5 15 20 0 2 5 5 4 2 1 2 5 1 4 0 1 2 0 0
89 100 57 72 78 100 100 100 93 83 84 100 100 100 100 100 61 60 51 80 46 5 5 5 9 5 3 0 0 0 5 4 4 3 4 0 3 4 5 5 5 5 4
100 100 100 77 63 93 100 79 96 87 84 100 100 100 78 88 100 81 100 28 5 5 5 9 3 1 26 2 0 0 2 4 0 2 0 2 1 5 4 0 5 5 5
97 92 100 74 94 100 95 84 100 99 100 100 100 100 99 100 100 100 35 14 20 19 33 5 3 0 5 5 3 5 0 0 4 0 1 1 0 2 1 2 5 5 2
100 90 100 99 100 100 100 100 68 100 100 100 100 51 100 100 100 44 58 52 82 74 5 0 2 5 5 3 0 2 0 0 0 0 0 0 0 0 0 0 0 1 80
85 99 98 98 96 78 100 100 100 100 100 100 68 100 100 100 32 77 100 100 15 5 3 5 5 5 3 0 0 0 0 0 0 0 0 0 0 0 0 0 0 9 88
85 99 98 100 100 100 81 78 100 100 100 100 100 100 100 70 97 100 100 92 5 5 5 5 5 4 0 0 0 0 0 0 0 0 0 0 0 0 0 0 7 13 93
100 100 100 100 100 100 90 84 100 100 100 100 100 100 71 92 100 100 76 22 3 5 6 26 9 4 0 0 0 0 1 0 0 0 0 0 0 0 5 34 80 81 74